Regional Weather Roundup
Issued by NWS

Home | Current Version | Previous Version | Graphics & Text | Print | Product List | Glossary On
Versions: 1 2 3 4 5 6 7 8 9 10 11 12 13 14 15 16 17 18 19 20 21 22 23 24 25 26 27 28 29 30 31 32 33 34 35 36 37 38 39 40 41 42 43 44 45 46 47 48 49 50
000
ASUS45 KABQ 012101
RWRNM
WEATHER ROUNDUP FOR NEW MEXICO
NATIONAL WEATHER SERVICE ALBUQUERQUE NM
300 PM MDT WED APR 01 2015

NOTE: "FAIR" MEANS FEW OR NO CLOUDS BELOW 12,000 FEET AGL WITH NO
       SIGNIFICANT WEATHER OR OBSTRUCTIONS TO VISION.

      THIS PRODUCT IS RELEASED AS TWO VERSIONS.  ONE VERSION NEAR
      THE TOP OF THE HOUR CONTAINING PRELIMINARY DATA FROM ALBUQUERQUE
      AND OTHER STATIONS.  A FINAL VERSION WITH ADDITIONAL DATA IS
      ISSUED ABOUT 10 MINUTES AFTER THE HOUR.

NMZ501-503-504-510>518-012200-
NORTHWEST PLATEAU/NORTHCENTRAL MOUNTAINS

CITY           SKY/WX    TMP DP  RH WIND       PRES   REMARKS
FARMINGTON     SUNNY     72  16  12 W21G28    29.87F
SANTA FE       SUNNY     71  18  13 W21G33    29.91F
TAOS           PTSUNNY   64  19  17 W25G33    29.93F

$$
NMZ402-403-502-505>509-012200-
WESTCENTRAL MOUNTAINS/SOUTHWEST MOUNTAINS

CITY           SKY/WX    TMP DP  RH WIND       PRES   REMARKS
GALLUP         MOSUNNY   69  18  14 W28G37    29.98F

$$
NMZ407-409-411-412-012200-
SOUTHERN DESERTS

CITY           SKY/WX    TMP DP  RH WIND       PRES   REMARKS
DEMING         SUNNY     78  34  20 NW17G30   29.96F
HOLLOMAN AFB   MOSUNNY   80  29  15 NW9G17    29.90F
ALAMOGORDO     MOSUNNY   79  27  14 W17       29.92F
T OR C         MOSUNNY   78  23  13 NW8G17    29.89F

$$
NMZ519>523-012200-
CENTRAL VALLEYS/CENTRAL HIGHLANDS

CITY           SKY/WX    TMP DP  RH WIND       PRES   REMARKS
ALBUQUERQUE    PTSUNNY   74  23  15 SW21      29.91F
DOUBLE EAGLE   PTSUNNY   72  25  17 W17G29    29.94F
CLINES CORNERS MOSUNNY   69  18  14 W30G40    29.94F
BELEN          FAIR      74  20  13 W15G28    29.91F
SOCORRO        NOT AVBL

$$
NMZ524>526-539-540-012200-
SOUTHCENTRAL MOUNTAINS

CITY           SKY/WX    TMP DP  RH WIND       PRES   REMARKS
RUIDOSO        NOT AVBL

$$
NMZ527>531-012200-
NORTHEAST HIGHLANDS/NORTHEAST PLAINS

CITY           SKY/WX    TMP DP  RH WIND       PRES   REMARKS
LAS VEGAS      PTSUNNY   68  20  16 SW14G47   29.89F
RATON          MOSUNNY   72  18  13 W17G26    29.82F
CLAYTON        SUNNY     79  23  12 W23G32    29.74F

$$
NMZ532>537-012200-
EASTCENTRAL PLAINS

CITY           SKY/WX    TMP DP  RH WIND       PRES   REMARKS
TUCUMCARI      SUNNY     84  24  11 W21G35    29.75F
CANNON AFB     SUNNY     82  28  13 W17G26    29.80F
CLOVIS AIRPORT MOSUNNY   82  30  15 W17G29    29.80F

$$
NMZ028-029-538-012200-
SOUTHEAST PLAINS

CITY           SKY/WX    TMP DP  RH WIND       PRES   REMARKS
ROSWELL        PTSUNNY   83  31  15 SW8G22    29.81F
ARTESIA        MOSUNNY   82  36  18 SW5       29.81F
CARLSBAD       NOT AVBL
HOBBS          MOSUNNY   82  28  14 W12       29.84F


$$



USA.gov is the U.S. government's official web portal to all federal, state and local government web resources and services.